Location: Bruderhein
(53.8035°N, 112.9265°W)
Time: 10:37:24
(UTC+00:00)

DIWATA 2B (PO-101) - Pass Details

Date: 30 March 2023
Orbit: 581 x 593 km, 98.0° (Epoch: 29 May)

Event Time Altitude Azimuth Distance (km) Brightness Sun altitude
Exits shadow 11:12:52 12° 299° (WNW) 1,751 ? -17.0°
Drops below altitude 10° 11:13:38 10° 308° (NW) 1,911 ? -16.9°
Sets 11:16:37 0° 332° (NNW) 2,818 ? -16.5°
